Location: Ajisawe
(8.4333°N, 4.3833°E)
Time: 21:40:38
(UTC+00:00)

Vanguard 2 Rocket - Pass Details

Date: 24 April 2021
Orbit: 554 x 3326 km, 32.9° (Epoch: 16 May)

Event Time Altitude Azimuth Distance (km) Brightness Sun altitude
Rises 08:14:33 0° 223° (SW) 3,924 9.8 39.3°
Reaches altitude 10° 08:16:49 10° 219° (SW) 3,226 9.5 39.8°
Maximum altitude 08:25:07 60° 140° (SE) 2,031 9.6 41.8°
Drops below altitude 10° 08:39:58 10° 64° (ENE) 5,517 11.8 45.4°
Sets 08:45:09 0° 61° (ENE) 6,862 12.0 46.7°
